Regional Weather Roundup
Issued by NWS

Home | Current Version | Previous Version | Text Only | Print | Product List | Glossary On
Versions: 1 2 3 4 5 6 7 8 9 10 11 12 13 14 15 16 17 18 19 20 21 22 23 24 25 26 27 28 29 30 31 32 33 34 35 36 37 38 39 40 41 42 43 44 45 46 47 48 49 50
588
ASUS44 KLIX 211210
RWRLA
LOUISIANA WEATHER ROUNDUP
NATIONAL WEATHER SERVICE NEW ORLEANS LA
600 AM CST FRI NOV 21 2014

NOTE: "FAIR" INDICATES FEW OR NO CLOUDS BELOW 12,000 FEET WITH NO
      SIGNIFICANT WEATHER AND/OR OBSTRUCTIONS TO VISIBILITY.
      SKY/WX - SKY CONDITION AND SIGNIFICANT WEATHER.
      TMP - AIR TEMPERATURE.    DP   - DEWPOINT TEMPERATURE.
      RH  - RELATIVE HUMIDITY.  PRES - PRESSURE.
      HX  - HEAT INDEX.         WCI  - WIND CHILL INDEX.

*  THESE STATIONS ARE NOT NWS OR FAA STATIONS AND ARE NOT UNDER
   NWS QUALITY CONTROL.

LAZ040-048-061>063-065-066-069-211300-
SOUTHEAST LOUISIANA

CITY           SKY/WX    TMP DP  RH WIND       PRES   REMARKS
N.O. AUDUBON   NOT AVBL
N.O. INTL ARPT PTCLDY    48  44  86 CALM      30.25R
6HR MIN TEMP:  47; 6HR MAX TEMP:  54;

N.O. LAKEFRONT CLEAR     52  47  83 E8        30.26R
6HR MIN TEMP:  50; 6HR MAX TEMP:  55;

N.O. DOWNTOWN* FAIR      57  43  58 SE6       30.26R
6HR MIN TEMP:  54; 6HR MAX TEMP:  57;

SLIDELL        CLEAR     39  37  92 CALM      30.26R
6HR MIN TEMP:  37; 6HR MAX TEMP:  43;

BATON ROUGE    CLOUDY    46  44  93 E6        30.24R
6HR MIN TEMP:  43; 6HR MAX TEMP:  51;

BOOTHVILLE     CLEAR     55  51  86 E5        30.26R
6HR MIN TEMP:  51; 6HR MAX TEMP:  55;

BELLE CHASSE   PTCLDY    42  38  85 CALM      30.25R
6HR MIN TEMP:  41; 6HR MAX TEMP:  55;

BOGALUSA*        N/A     38  36  91 CALM      30.29R
6HR MIN TEMP:  37; 6HR MAX TEMP:  45;

NEW ROADS*     CLOUDY    50  47  89 CALM      30.24R
6HR MIN TEMP:  46; 6HR MAX TEMP:  54;

GONZALES*      PTSUNNY   44  44 100 CALM      30.25R
6HR MIN TEMP:  43; 6HR MAX TEMP:  48;

HAMMOND*       CLEAR     41  39  93 CALM      30.27R
HOUMA*         PTCLDY    45  45 100 CALM      30.24R
PORT FOURCHON* SUNNY     63  52  67 SE8       30.27R

$$

LAZ041-044-053-054-211300-
SOUTHWEST LOUISIANA

CITY           SKY/WX    TMP DP  RH WIND       PRES   REMARKS
LAKE CHARLES   CLOUDY    60  52  74 SE14      30.17R
6HR MIN TEMP:  58; 6HR MAX TEMP:  60; 6HR PCP: TRACE;

LAFAYETTE      CLOUDY    56  50  80 CALM      30.22R
6HR MIN TEMP:  53; 6HR MAX TEMP:  57;

PATTERSON      CLOUDY    55  50  82 E8        30.24S
6HR MIN TEMP:  54; 6HR MAX TEMP:  57;

SALT POINT       N/A     59  52  77 SE7       30.21S
6HR MIN TEMP:  55; 6HR MAX TEMP:  59;

NEW IBERIA     CLOUDY    56  51  84 SE5       30.23R
6HR MIN TEMP:  50; 6HR MAX TEMP:  57;

CHENAULT AIRPK CLOUDY    61  54  77 SE8       30.18

$$

LAZ027-028-211300-
CENTRAL LOUISIANA

CITY           SKY/WX    TMP DP  RH WIND       PRES   REMARKS
FORT POLK      CLOUDY    54  52  94 E8        30.18F
6HR MIN TEMP:  54; 6HR MAX TEMP:  57; 6HR PCP:  0.03;

ALEXANDRIA INT LGT RAIN  53  50  89 SE6       30.20R
6HR MIN TEMP:  50; 6HR MAX TEMP:  54; 6HR PCP: TRACE;

ALEXANDRIA     CLOUDY    50  48  93 CALM      30.22R
6HR MIN TEMP:  45; 6HR MAX TEMP:  51; 6HR PCP: TRACE;


$$

LAZ001-002-211300-
NORTHWEST LOUISIANA

CITY           SKY/WX    TMP DP  RH WIND       PRES   REMARKS
SHREVEPORT     CLOUDY    54  52  93 SE12      30.17S
6HR MIN TEMP:  54; 6HR MAX TEMP:  57; 6HR PCP:  0.13;

BARKSDALE AFB  MOCLDY    54  52  94 S10       30.18R
                                      6HR PCP:  0.09;

DTN SHREVEPORT LGT RAIN  53  51  93 SE13      30.18R FOG
6HR MIN TEMP:  53; 6HR MAX TEMP:  58; 6HR PCP:  0.05;


$$

LAZ014-016-211300-
NORTHEAST LOUISIANA

CITY           SKY/WX    TMP DP  RH WIND       PRES   REMARKS
MONROE         CLOUDY    51  49  92 CALM      30.24R
6HR MIN TEMP:  49; 6HR MAX TEMP:  54; 6HR PCP: TRACE;

TALLULAH       CLOUDY    47  44  90 SE5       30.26R
6HR MIN TEMP:  43; 6HR MAX TEMP:  50;


$$




USA.gov is the U.S. government's official web portal to all federal, state and local government web resources and services.